Miscellaneous Local Product
Issued by NWS North Platte, NE

Home | Current Version | Previous Version | Text Only | Print | Product List | Glossary On
Versions: 1 2 3 4 5 6 7 8 9 10 11 12 13 14 15 16 17 18 19 20 21 22 23 24 25 26 27 28 29 30 31 32 33 34 35 36 37 38 39 40 41 42 43 44 45 46 47 48 49 50
000
AXUS43 KLBF 261310
MISLBF


WESTERN AND NORTH CENTRAL NEBRASKA HOURLY WEATHER ROUNDUP
NATIONAL WEATHER SERVICE NORTH PLATTE NE
800 AM CDT SAT JUL 26 2014

***STATIONS NOT REPORTING VARIABLES SUCH AS SKY/WEATHER OR
PRESSURE ARE PROVIDED BY THE NEBRASKA DEPARTMENT OF
ROADS...RAWS...AND APRS NETWORKS...AND ARE NOT UNDER
NATIONAL WEATHER SERVICE QUALITY CONTROL***

...OBSERVATIONS IN AND NEAR THE EASTERN PANHANDLE OF NEBRASKA...

CITY           SKY/WX    TMP DP  RH WIND       PRES   REMARKS
PINE RIDGE     MOSUNNY   61  53  75 W5        29.99R
CHADRON        MOSUNNY   66  53  63 W8        30.01R
ALLIANCE       MOSUNNY   61  54  77 W7        30.02R
SIDNEY         SUNNY     70  50  49 W6        30.06R
WHITECLAY        N/A     64  50  59 W9          N/A
RUSHVILLE        N/A     67  48  50 N21         N/A
GORDON           N/A     66  58  76 W10         N/A
CRESCENT LAKE    N/A     66  55  68 NW12        N/A
LISCO            N/A     69  56  63 W9          N/A
BIG SPRINGS      N/A     64  60  86 SW3         N/A
$$

...OBSERVATIONS IN NORTH CENTRAL NEBRASKA...

CITY           SKY/WX    TMP DP  RH WIND       PRES   REMARKS
VALENTINE      SUNNY     72  69  90 NE3       29.85S FOG
THEDFORD       SUNNY     71  68  91 CALM      29.89R
AINSWORTH      MOSUNNY   71  71 100 SE8       29.86R FOG
O`NEILL        MOSUNNY   74  71  89 S9        29.88R FOG
ORD            SUNNY     75  73  93 SE8       29.84F FOG
BROKEN BOW     SUNNY     72  68  87 CALM      29.87F
BROWNLEE         N/A     73  70  88 SW8         N/A
SPRINGVIEW       N/A     73  71  93 E5          N/A
DUNNING          N/A     76  75  96 CALM        N/A
ROSE             N/A     75  75 100 E8          N/A
NEWPORT          N/A     77  76  96 SE10        N/A
SARGENT          N/A     71  70  98 CALM        N/A
COMSTOCK         N/A     78  76  92 CALM        N/A
CHAMBERS         N/A     75  73  95 S3          N/A
$$

...OBSERVATIONS IN SOUTHWEST NEBRASKA AND FAR NORTHEAST COLORADO...

CITY           SKY/WX    TMP DP  RH WIND       PRES   REMARKS
WRAY             N/A     68  57  68 W9        29.99R
HOLYOKE        FAIR      72  59  64 W10       29.97S
IMPERIAL       SUNNY     71  59  65 W12       29.94R
OGALLALA       SUNNY     63  60  90 W5        29.93R
NORTH PLATTE   SUNNY     72  67  84 SE3       29.89R
MCCOOK         SUNNY     73  65  75 W8        29.90R
LEXINGTON      SUNNY     72  69  92 W3        29.88R FOG
PAXTON           N/A     67  64  89 CALM        N/A
SUTHERLAND       N/A     73  70  91 W6          N/A
BRADY            N/A     70  66  86 CALM        N/A
GOTHENBURG       N/A     71  63  76 CALM        N/A
CALLAWAY         N/A     64  63  96 CALM        N/A
$$

...SOME WEATHER OBSERVATIONS FROM AROUND THE REGION...

CITY           SKY/WX    TMP DP  RH WIND       PRES   REMARKS
DENVER         MOSUNNY   73  46  38 SW10      30.12R
LARAMIE        MOSUNNY   55  45  68 SE7       30.29R
CHEYENNE       SUNNY     67  43  41 N15       30.19R
SCOTTSBLUFF    MOSUNNY   67  53  61 NW12      30.04R
RAPID CITY     SUNNY     64  46  52 NW21G32   30.01R
PIERRE         TSTM      69  68  96 SE8G17    29.85S FOG
WINNER         CLOUDY    73  68  84 SE15      29.81F
SIOUX FALLS    TSTM      72  69  90 S7        29.83F
OMAHA          PTSUNNY   75  70  84 NE3       29.82R
GRAND ISLAND   FOG       75  74  96 NE7       29.85S VSB 1/4
KANSAS CITY    CLOUDY    78  71  79 S8        29.83R
WICHITA        PTSUNNY   78  65  63 S15       29.86R
HAYS           CLOUDY    73  68  83 NW6       29.86R
LIBERAL        PTSUNNY   79  52  38 SW13      29.97R
GOODLAND       MOSUNNY   71  63  75 W7        29.99R
$$



USA.gov is the U.S. government's official web portal to all federal, state and local government web resources and services.